Retour au catalogue

STERKH 2

ActifScienceSSO
NORAD 35866·PAYLOAD·🇷🇺 Russia

Lancé Sep 17, 2009 depuis Baikonur Cosmodrome

Loading…

Prochains Passages (prochaines 24 heures)

TLE

FraisSource: Space-Track

Époque: Sep 14, 2026, 08:27 UTC

1 35866U 09049B   26257.35249518  .00000056  00000-0  43443-4 0  9992
2 35866  98.7257 217.8247 0003797  37.8422 322.3023 14.23993458882338

Suivez STERKH 2 en temps réel avec AllMySat

Download on the App Store